This is the latest recevied weather packets stored in our database for station/object W5LND-10. If no packets are shown the sender has not sent any weather packets the latest 10 day(s).
| Time | Temp. | Humidity | Pressure | Rain* | Wind** | Luminosity | Snow |
|---|---|---|---|---|---|---|---|
| 1777304493 | 27.78° C | 20% | 1005.5 hPa | 0 mm | - | 840 W/m² | - |
| 1777304193 | 27.22° C | 20% | 1005.5 hPa | 0 mm | - | 821 W/m² | - |
| 1777303893 | 27.78° C | 20% | 1005.5 hPa | 0 mm | - | 816 W/m² | - |
| 1777303593 | 27.22° C | 22% | 1005.4 hPa | 0 mm | - | 800 W/m² | - |
| 1777303293 | 27.22° C | 20% | 1005.3 hPa | 0 mm | - | 782 W/m² | - |
| 1777302993 | 27.22° C | 22% | 1005.3 hPa | 0 mm | - | 763 W/m² | - |
| 1777302693 | 27.22° C | 21% | 1005.3 hPa | 0 mm | - | 747 W/m² | - |
| 1777302393 | 26.67° C | 22% | 1005.1 hPa | 0 mm | - | 737 W/m² | - |
| 1777302093 | 26.67° C | 23% | 1005 hPa | 0 mm | - | 714 W/m² | - |
| 1777301793 | 26.67° C | 24% | 1005.1 hPa | 0 mm | - | 696 W/m² | - |
| 1777301493 | 26.11° C | 26% | 1005 hPa | 0 mm | - | 682 W/m² | - |
| 1777301193 | 26.11° C | 28% | 1005 hPa | 0 mm | - | 659 W/m² | - |
| 1777300893 | 25.56° C | 29% | 1005 hPa | 0 mm | - | 643 W/m² | - |
| 1777300593 | 25.56° C | 30% | 1005 hPa | 0 mm | - | 622 W/m² | - |
| 1777300293 | 25° C | 34% | 1005 hPa | 0 mm | - | 599 W/m² | - |
| 1777299993 | 24.44° C | 36% | 1004.9 hPa | 0 mm | - | 585 W/m² | - |
| 1777299693 | 23.89° C | 44% | 1004.9 hPa | 0 mm | - | 563 W/m² | - |
| 1777299393 | 23.89° C | 47% | 1004.9 hPa | 0 mm | - | 541 W/m² | - |
| 1777299093 | 23.33° C | 54% | 1005 hPa | 0 mm | - | 517 W/m² | - |
| 1777298793 | 23.33° C | 55% | 1004.9 hPa | 0 mm | - | 499 W/m² | - |
| 1777298493 | 22.78° C | 56% | 1004.9 hPa | 0 mm | - | 476 W/m² | - |
| 1777298193 | 22.78° C | 56% | 1004.8 hPa | 0 mm | - | 455 W/m² | - |
| 1777297893 | 22.22° C | 58% | 1004.7 hPa | 0 mm | - | 436 W/m² | - |
| 1777297593 | 22.22° C | 60% | 1004.6 hPa | 0 mm | - | 417 W/m² | - |
| 1777297293 | 21.67° C | 62% | 1004.6 hPa | 0 mm | - | 396 W/m² | - |
* Rain latest hour (hover to see other rain measurements)
** Current wind speed in m/s (hover to see current wind gust speed)